Home > Weather > Bad Oeynhausen > Past weeks

Flag for Germany Past Weather in Bad Oeynhausen, North Rhine-Westphalia, Germany — Yesterday and Last 2 Weeks

Now
66 °F

Passing clouds.


Feels Like: 66 °F
Forecast: 60 / 73 °F
Wind: 2 mph from South

Location: Bueckeburg

Current Time: Jul 25, 2016 at 4:24:26 AM

Latest Report: Jul 25, 2016 at 3:20 AM


Visibility: N/A

Pressure: 30.04 "Hg

Humidity: 88%

Dew Point: 63 °F

Location of Bad OeynhausenLocation

Past Weather in Bad Oeynhausen — Graph

°F

Bad Oeynhausen Temperature Yesterday

Maximum temperature yesterday: 84 °F (at 2:20 PM)
Minimum temperature yesterday: 63 °F (at 4:20 AM)
Average temperature yesterday: 74 °F

High & Low Weather Summary for the Past Weeks

 TemperatureHumidityPressure
High90 °F (Jul 20, 3:20 PM)100% (Jul 17, 3:20 AM)30.24 "Hg (Jul 17, 3:20 AM)
Low54 °F (Jul 14, 6:20 AM)28% (Jul 17, 4:20 PM)29.74 "Hg (Jul 10, 8:20 PM)
Average69 °F69%30.02 "Hg
* Reported Jul 10 2:20 AM — Jul 25 2:20 AM, Bad Oeynhausen, Weather by CustomWeather, © 2016

Note: Actual official high and low records may vary slightly from our data, if they occured in-between our weather recording intervals... More about our weather records

Advertising

Bad Oeynhausen Weather History for the Previous 24 Hours

Scroll right to see more
 ConditionsComfort  
Time TempWeatherWind HumidityBarometerVisibility
2:20 AM
Mon, Jul 25
66 °FPassing clouds.2 mph88%30.07 "HgN/A
1:20 AM66 °FPartly cloudy.2 mph83%30.07 "HgN/A
12:20 AM68 °FPassing clouds.2 mph83%30.07 "HgN/A
11:20 PM
Sun, Jul 24
70 °FPassing clouds.2 mph78%30.07 "HgN/A
10:20 PM73 °FPartly sunny.2 mph65%30.07 "HgN/A
9:20 PM77 °FBroken clouds.2 mph57%30.07 "HgN/A
8:20 PM79 °FBroken clouds.7 mph51%30.04 "HgN/A
7:20 PM84 °FPartly sunny.5 mph35%30.04 "HgN/A
6:20 PM84 °FScattered clouds.8 mph35%30.04 "HgN/A
5:20 PM84 °FScattered clouds.5 mph33%30.04 "HgN/A
4:20 PM84 °FPassing clouds.3 mph31%30.07 "HgN/A
3:20 PM84 °FPassing clouds.5 mph31%30.07 "HgN/A
2:20 PM84 °FPassing clouds.6 mph31%30.07 "HgN/A
1:20 PM82 °FPassing clouds.5 mph35%30.07 "HgN/A
12:20 PM81 °FPassing clouds.6 mph42%30.09 "HgN/A
11:20 AM79 °FPassing clouds.7 mph51%30.07 "HgN/A
10:20 AM77 °FPartly sunny.3 mph47%30.09 "HgN/A
9:20 AM72 °FPartly sunny.2 mph65%30.09 "HgN/A
8:20 AM68 °FPartly sunny.1 mph73%30.09 "HgN/A
7:20 AM64 °FPartly sunny.2 mph83%30.09 "HgN/A
6:20 AM63 °FPassing clouds.2 mph77%30.09 "HgN/A
5:20 AM63 °FMild.1 mph77%30.09 "Hg4 mi
4:20 AM63 °FMild.3 mph77%30.09 "Hg4 mi
Weather by CustomWeather, © 2016

See weather overviewHow to use our weather pages